Tillbaka till svenska Fidonet
English   Information   Debug  
FILM   0/18
FNEWS_PUBLISH   4926
FN_SYSOP   42201
FN_SYSOP_OLD1   71952
FTP_FIDO   0/2
FTSC_PUBLIC   0/13972
FUNNY   0/4886
GENEALOGY.EUR   0/71
GET_INFO   105
GOLDED   0/408
HAM   5986/16659
HOLYSMOKE   0/6791
HOT_SITES   0/1
HTMLEDIT   0/71
HUB203   466
HUB_100   264
HUB_400   39
HUMOR   0/29
IC   0/2851
INTERNET   0/424
INTERUSER   0/3
IP_CONNECT   719
JAMNNTPD   0/233
JAMTLAND   0/47
KATTY_KORNER   0/41
LAN   0/16
LINUX-USER   0/19
LINUXHELP   0/1155
LINUX   0/22300
LINUX_BBS   0/957
mail   18.68
mail_fore_ok   249
MENSA   0/341
MODERATOR   0/102
MONTE   0/992
MOSCOW_OKLAHOMA   0/1245
MUFFIN   0/783
MUSIC   0/321
N203_STAT   938
N203_SYSCHAT   313
NET203   321
NET204   69
NET_DEV   0/10
NORD.ADMIN   0/101
NORD.CHAT   0/2572
NORD.FIDONET   189
NORD.HARDWARE   0/28
NORD.KULTUR   0/114
NORD.PROG   0/32
NORD.SOFTWARE   0/88
NORD.TEKNIK   0/58
NORD   0/453
OCCULT_CHAT   0/93
OS2BBS   0/787
OS2DOSBBS   0/580
OS2HW   0/42
OS2INET   0/37
OS2LAN   0/134
OS2PROG   0/36
OS2REXX   0/113
OS2USER-L   207
OS2   0/4830
OSDEBATE   0/18996
PASCAL   0/490
PERL   0/457
PHP   0/45
POINTS   0/405
POLITICS   0/29554
POL_INC   0/14731
PSION   103
R20_ADMIN   1133
R20_AMATORRADIO   0/2
R20_BEST_OF_FIDONET   16
R20_CHAT   0/896
R20_DEPP   0/3
R20_DEV   400
R20_ECHO2   1830
R20_ECHOPRES   0/35
R20_ESTAT   0/719
R20_FIDONETPROG...
...RAM.MYPOINT
  0/2
R20_FIDONETPROGRAM   0/22
R20_FIDONET   0/248
R20_FILEFIND   0/24
R20_FILEFOUND   0/22
R20_HIFI   0/3
R20_INFO2   3723
R20_INTERNET   0/12940
R20_INTRESSE   0/60
R20_INTR_KOM   0/99
R20_KANDIDAT.CHAT   42
R20_KANDIDAT   28
R20_KOM_DEV   112
R20_KONTROLL   0/13360
R20_KORSET   0/18
R20_LOKALTRAFIK   0/24
R20_MODERATOR   0/1852
R20_NC   76
R20_NET200   245
R20_NETWORK.OTH...
...ERNETS
  0/13
R20_OPERATIVSYS...
...TEM.LINUX
  0/44
R20_PROGRAMVAROR   0/1
R20_REC2NEC   534
R20_SFOSM   0/341
R20_SF   0/108
R20_SPRAK.ENGLISH   0/1
R20_SQUISH   107
R20_TEST   2
R20_WORST_OF_FIDONET   20
RAR   0/9
RA_MULTI   106
RA_UTIL   0/162
REGCON.EUR   0/2068
REGCON   0/13
SCIENCE   0/1206
SF   0/239
SHAREWARE_SUPPORT   0/5146
SHAREWRE   0/14
SIMPSONS   0/169
STATS_OLD1   0/2539.065
STATS_OLD2   0/2530
STATS_OLD3   0/2395.095
STATS_OLD4   0/1692.25
SURVIVOR   0/495
SYSOPS_CORNER   0/3
SYSOP   0/84
TAGLINES   0/112
TEAMOS2   0/4530
TECH   0/2617
TEST.444   0/105
TRAPDOOR   0/19
TREK   0/755
TUB   0/290
UFO   0/40
UNIX   0/1316
USA_EURLINK   0/102
USR_MODEMS   0/1
VATICAN   0/2740
VIETNAM_VETS   0/14
VIRUS   0/378
VIRUS_INFO   0/201
VISUAL_BASIC   0/473
WHITEHOUSE   0/5187
WIN2000   0/101
WIN32   0/30
WIN95   0/4291
WIN95_OLD1   0/70272
WINDOWS   0/1517
WWB_SYSOP   0/419
WWB_TECH   0/810
ZCC-PUBLIC   0/1
ZEC   4

 
4DOS   0/134
ABORTION   0/7
ALASKA_CHAT   0/506
ALLFIX_FILE   0/1313
ALLFIX_FILE_OLD1   0/7997
ALT_DOS   0/152
AMATEUR_RADIO   0/1039
AMIGASALE   0/14
AMIGA   0/331
AMIGA_INT   0/1
AMIGA_PROG   0/20
AMIGA_SYSOP   0/26
ANIME   0/15
ARGUS   0/924
ASCII_ART   0/340
ASIAN_LINK   0/651
ASTRONOMY   0/417
AUDIO   0/92
AUTOMOBILE_RACING   0/105
BABYLON5   0/17862
BAG   135
BATPOWER   0/361
BBBS.ENGLISH   0/382
BBSLAW   0/109
BBS_ADS   0/5290
BBS_INTERNET   0/507
BIBLE   0/3563
BINKD   0/1119
BINKLEY   0/215
BLUEWAVE   0/2173
CABLE_MODEMS   0/25
CBM   0/46
CDRECORD   0/66
CDROM   0/20
CLASSIC_COMPUTER   0/378
COMICS   0/15
CONSPRCY   0/899
COOKING   41433
COOKING_OLD1   0/24719
COOKING_OLD2   0/40862
COOKING_OLD3   0/37489
COOKING_OLD4   0/35496
COOKING_OLD5   9370
C_ECHO   0/189
C_PLUSPLUS   0/31
DIRTY_DOZEN   0/201
DOORGAMES   0/2284
DOS_INTERNET   0/196
duplikat   6102
ECHOLIST   14758/18295
EC_SUPPORT   0/318
ELECTRONICS   0/359
ELEKTRONIK.GER   1534
ENET.LINGUISTIC   0/13
ENET.POLITICS   0/4
ENET.SOFT   0/11701
ENET.SYSOP   34296
ENET.TALKS   0/32
ENGLISH_TUTOR   0/2000
EVOLUTION   0/1335
FDECHO   0/217
FDN_ANNOUNCE   0/7068
FIDONEWS   25062
FIDONEWS_OLD1   0/49742
FIDONEWS_OLD2   0/35949
FIDONEWS_OLD3   0/30874
FIDONEWS_OLD4   0/37224
FIDO_SYSOP   12922
FIDO_UTIL   0/180
FILEFIND   0/209
FILEGATE   0/212
Möte HAM, 16659 texter
 lista första sista föregående nästa
Text 3576, 880 rader
Skriven 2010-03-28 03:00:18 av Amsat List (1:323/120.0)
Ärende: [keps]  orb10087.amsa
=============================
[keps]  orb10087.amsa

Return-Path: <keps-bounces@amsat.org>
X-Rcpt: craig.healy@chowda.com
X-UIDL: 1269762209.22865

SB KEPS @ AMSAT  $ORB10087.O
Orbital Elements  10087.OSCAR

HR AMSAT ORBITAL ELEMENTS FOR OSCAR SATELLITES
FROM WA5QGD FORT WORTH,TX March 28, 2010
Send Subscribe/unsubscribe to KEPS at http://www.amsat.org/mailman/listinfo/kep
BID: ORB10087.O
TO ALL RADIO AMATEURS BT

Satellite: AO-07
Catalog number: 07530
Epoch time:      10086.08205895
Element set:     736
Inclination:      101.4066 deg
RA of node:       105.1226 deg
Eccentricity:    0.0012115
Arg of perigee:   074.5547 deg
Mean anomaly:     285.6861 deg
Mean motion:   12.53577990 rev/day
Decay rate:       -2.7e-07 rev/day^2
Epoch rev:           61816
Checksum:              294

Satellite: FO-29
Catalog number: 24278
Epoch time:      10086.16531306
Element set:     272
Inclination:      098.5196 deg
RA of node:       286.6158 deg
Eccentricity:    0.0350829
Arg of perigee:   336.7915 deg
Mean anomaly:     021.7708 deg
Mean motion:   13.52948611 rev/day
Decay rate:       -5.0e-08 rev/day^2
Epoch rev:           67201
Checksum:              319

Satellite: SO-33
Catalog number: 25509
Epoch time:      10084.80483422
Element set:     677
Inclination:      031.4331 deg
RA of node:       260.0420 deg
Eccentricity:    0.0354686
Arg of perigee:   280.7454 deg
Mean anomaly:     075.3507 deg
Mean motion:   14.28297181 rev/day
Decay rate:       1.61e-06 rev/day^2
Epoch rev:           59612
Checksum:              293

Satellite: RS-22
Catalog number: 27939
Epoch time:      10086.48476258
Element set:      42
Inclination:      097.9052 deg
RA of node:       315.3843 deg
Eccentricity:    0.0012930
Arg of perigee:   321.9099 deg
Mean anomaly:     038.1165 deg
Mean motion:   14.63396299 rev/day
Decay rate:       1.11e-06 rev/day^2
Epoch rev:           34700
Checksum:              309

Satellite: VO-52
Catalog number: 28650
Epoch time:      10085.81453043
Element set:     464
Inclination:      097.7016 deg
RA of node:       142.4277 deg
Eccentricity:    0.0026976
Arg of perigee:   183.3878 deg
Mean anomaly:     176.7114 deg
Mean motion:   14.81707840 rev/day
Decay rate:       1.95e-06 rev/day^2
Epoch rev:           26449
Checksum:              326

Satellite: SO-67
Catalog number: 35870
Epoch time:      10086.77127731
Element set:     575
Inclination:      097.3408 deg
RA of node:       137.9494 deg
Eccentricity:    0.0008803
Arg of perigee:   352.6696 deg
Mean anomaly:     144.1440 deg
Mean motion:   15.22416570 rev/day
Decay rate:       8.93e-06 rev/day^2
Epoch rev:            2907
Checksum:              326

Satellite: HO-68
Catalog number: 36122
Epoch time:      10086.15936550
Element set:     166
Inclination:      100.4779 deg
RA of node:       147.3922 deg
Eccentricity:    0.0007314
Arg of perigee:   160.6807 deg
Mean anomaly:     199.4575 deg
Mean motion:   13.16280109 rev/day
Decay rate:       -4.5e-07 rev/day^2
Epoch rev:            1342
Checksum:              291

/EX
SB KEPS @ AMSAT  $ORB10087.D
Orbital Elements  10087.MICROS

HR AMSAT ORBITAL ELEMENTS FOR THE MICROSATS
FROM WA5QGD FORT WORTH,TX March 28, 2010
Send Subscribe/unsubscribe to KEPS at http://www.amsat.org/mailman/listinfo/kep
BID: ORB10087.D
TO ALL RADIO AMATEURS BT

Satellite: UO-11
Catalog number: 14781
Epoch time:      10086.20476832
Element set:     206
Inclination:      098.0652 deg
RA of node:       137.6596 deg
Eccentricity:    0.0009614
Arg of perigee:   137.8300 deg
Mean anomaly:     222.3615 deg
Mean motion:   14.79782209 rev/day
Decay rate:        9.6e-07 rev/day^2
Epoch rev:           39968
Checksum:              318

Satellite: AO-16
Catalog number: 20439
Epoch time:      10086.08053775
Element set:     855
Inclination:      098.3227 deg
RA of node:       047.2563 deg
Eccentricity:    0.0011810
Arg of perigee:   053.5090 deg
Mean anomaly:     306.7188 deg
Mean motion:   14.31853810 rev/day
Decay rate:        4.3e-07 rev/day^2
Epoch rev:            5363
Checksum:              286

Satellite: LO-19
Catalog number: 20442
Epoch time:      10086.51069269
Element set:     766
Inclination:      098.2838 deg
RA of node:       053.8031 deg
Eccentricity:    0.0012593
Arg of perigee:   048.1832 deg
Mean anomaly:     312.0418 deg
Mean motion:   14.32086168 rev/day
Decay rate:        1.6e-07 rev/day^2
Epoch rev:            5386
Checksum:              296

Satellite: AO-27
Catalog number: 22825
Epoch time:      10086.59782611
Element set:     489
Inclination:      098.4780 deg
RA of node:       036.6910 deg
Eccentricity:    0.0009105
Arg of perigee:   145.0883 deg
Mean anomaly:     215.0890 deg
Mean motion:   14.29290996 rev/day
Decay rate:        3.0e-08 rev/day^2
Epoch rev:           86039
Checksum:              325

Satellite: IO-26
Catalog number: 22826
Epoch time:      10086.67786137
Element set:     226
Inclination:      098.4714 deg
RA of node:       037.4019 deg
Eccentricity:    0.0009443
Arg of perigee:   139.6180 deg
Mean anomaly:     220.5706 deg
Mean motion:   14.29546199 rev/day
Decay rate:        4.4e-07 rev/day^2
Epoch rev:           86051
Checksum:              314

Satellite: GO-32
Catalog number: 25397
Epoch time:      10086.19500740
Element set:     145
Inclination:      098.3164 deg
RA of node:       098.1565 deg
Eccentricity:    0.0002124
Arg of perigee:   123.6180 deg
Mean anomaly:     236.5199 deg
Mean motion:   14.23174587 rev/day
Decay rate:       1.00e-06 rev/day^2
Epoch rev:           60838
Checksum:              290

